User: anonymous
Location: *
(40.4270°N, 9.4940°E)
Time: 02:14:01
(UTC+02:00)
Language:

ATLAS 5 CENTAUR R/B - Orbit

View from above orbital plane
View from above orbital plane
View from above satellite
View from above satellite

Ground track
Ground track

The orbit data is extracted from the following two-line orbital elements,

1 31702U 07027B   14095.80255274 0.00000700  00000-0  31028-3 0    08
2 31702  63.3790  23.7340 0136000 347.0411  12.9589 14.18102406    03
Epoch (UTC): 05 April 2014 19:15:40
Eccentricity: 0.0136000
inclination: 63.3790°
perigee height: 734 km
apogee height: 930 km
right ascension of ascending node: 23.7340°
argument of perigee: 347.0411°
revolutions per day: 14.18102406
mean anomaly at epoch: 12.9589°
orbit number at epoch: 0

The dashed part of the orbit path shows where the satellite is in the earth's shadow,  

DLR